Location: Bun Machan
(52.1403°N, 7.3744°W)
Time: 08:36:30
(UTC+00:00)

NOSS 2-1 (C) - Pass Details

Date: 14 July 2020
Orbit: 443 x 1759 km, 63.3° (Epoch: 29 July)

Event Time Altitude Azimuth Distance (km) Brightness Sun altitude
Rises 00:22:56 0° 314° (NW) 2,851 7.7 -16.2°
Reaches altitude 10° 00:24:55 10° 317° (NW) 2,072 7.0 -16.2°
Maximum altitude 00:29:35 66° 41° (NE) 883 4.4 -16.2°
Drops below altitude 10° 00:36:07 10° 123° (ESE) 2,873 6.6 -16.2°
Enters shadow 00:39:09 - 126° (SE) 4,005 7.4 -16.2°
